Woensdrecht, Netherlands

8:32 AM CEST on August 21, 2017 (GMT +0200)
Woensdrecht Air Base

Weather History for EHWO - October, 2013

Change the Weather History Date:

Thursday, October 10, 2013

  Actual Average Record
Temperature  
Mean Temperature 50 °F -  
Max Temperature 55 °F 54 °F 73 °F (2005)
Min Temperature 44 °F 43 °F 33 °F (2012)
Degree Days  
Heating Degree Days 16    
Moisture  
Dew Point 44 °F    
Average Humidity 83    
Maximum Humidity 93    
Minimum Humidity 67    
Precipitation  
Precipitation 0.00 in - - ()
Sea Level Pressure  
Sea Level Pressure 29.79 in    
Wind  
Wind Speed 9 mph ()    
Max Wind Speed 17 mph    
Max Gust Speed 31 mph    
Visibility 6.0 miles    
Events Rain , Thunderstorm    
Averages and records for this station are not official NWS values.
T = Trace of Precipitation, MM = Missing Value Source: Averaged Metar Reports

Daily Weather History Graph

Daily Weather History Graph

Search for Another Location

Airport or City:

Trip Planner

Search our weather history database for the weather conditions in past years. The results will help you decide how hot, cold, wet, or windy it might be!

Date:

Astronomy

Oct. 10, 2013 Rise Set
Actual Time 7:58 AM CEST 7:00 PM CEST
Civil Twilight 7:24 AM CEST 7:33 PM CEST
Nautical Twilight 6:46 AM CEST 8:11 PM CEST
Astronomical Twilight 6:07 AM CEST 8:50 PM CEST
Moon 2:03 PM CEST (10/10) 10:54 PM CEST (10/10)
Length of Visible Light 12h 08m
Length of Day
11h 01m
Waxing Crescent, 33% of the Moon is Illuminated
Oct 10
Waxing Crescent
Oct 12
First Quarter
Oct 19
Full
Oct 27
Last Quarter
Nov 3
New

Hourly Weather History & Observations

Time (CEST) Temp. Windchill Dew Point Humidity Pressure Visibility Wind Dir Wind Speed Gust Speed Precip Events Conditions
12:10 AM 50.0 °F - 44.6 °F 82% 29.83 in 6.2 mi West 8.1 mph - N/A Rain Light Rain
12:25 AM 50.0 °F - 44.6 °F 82% 29.83 in 6.2 mi West 8.1 mph - N/A   Mostly Cloudy
12:55 AM 50.0 °F - 46.4 °F 87% 29.83 in 6.2 mi West 9.2 mph - N/A   Overcast
1:25 AM 50.0 °F - 42.8 °F 76% 29.83 in 6.2 mi NNW 6.9 mph - N/A   Mostly Cloudy
1:55 AM 48.2 °F - 42.8 °F 82% 29.83 in 6.2 mi NNW 2.3 mph - N/A   Mostly Cloudy
2:25 AM 48.2 °F - 41.0 °F 76% 29.83 in 6.2 mi WNW 8.1 mph - N/A   Unknown
2:55 AM 50.0 °F - 41.0 °F 71% 29.80 in 6.2 mi WNW 10.4 mph - N/A   Unknown
3:25 AM 48.2 °F - 41.0 °F 76% 29.80 in 6.2 mi West 12.7 mph - N/A   Mostly Cloudy
3:55 AM 50.0 °F - 41.0 °F 71% 29.80 in 6.2 mi West 13.8 mph - N/A   Drizzle
4:25 AM 48.2 °F - 42.8 °F 82% 29.77 in 6.2 mi West 11.5 mph - N/A   Mostly Cloudy
4:55 AM 48.2 °F - 42.8 °F 82% 29.77 in 6.2 mi WNW 9.2 mph - N/A   Scattered Clouds
5:07 AM 48.2 °F - 41.0 °F 76% 29.77 in 0.3 mi WNW 10.4 mph - N/A   Haze
5:11 AM 48.2 °F - 42.8 °F 82% 29.77 in 6.2 mi WNW 12.7 mph 28.8 mph N/A Rain Rain
5:20 AM 48.2 °F - 42.8 °F 82% 29.77 in 6.2 mi WNW 13.8 mph - N/A   Mostly Cloudy
5:25 AM 48.2 °F - 41.0 °F 76% 29.77 in 6.2 mi NW 13.8 mph - N/A Rain Light Rain
5:30 AM 48.2 °F - 41.0 °F 76% 29.77 in 6.2 mi NW 12.7 mph - N/A Rain Rain
5:34 AM 46.4 °F 39.8 °F 41.0 °F 81% 29.77 in 3.1 mi NW 16.1 mph 31.1 mph N/A Rain Rain Showers
5:38 AM 44.6 °F 37.2 °F 41.0 °F 87% 29.77 in 5.6 mi NW 17.3 mph 31.1 mph N/A Rain Rain Showers
5:51 AM 46.4 °F 41.9 °F 41.0 °F 81% 29.77 in 4.3 mi WNW 9.2 mph - N/A Rain Light Rain
5:55 AM 46.4 °F 41.1 °F 41.0 °F 81% 29.77 in - WNW 11.5 mph - N/A Rain Rain
6:00 AM 46.4 °F 40.1 °F 41.0 °F 81% 29.77 in 5.6 mi West 15.0 mph - N/A Rain Heavy Rain Showers
6:11 AM 44.6 °F 38.8 °F 41.0 °F 87% 29.77 in 6.2 mi West 11.5 mph - N/A   Mostly Cloudy
6:15 AM 44.6 °F 39.7 °F 41.0 °F 87% 29.77 in 6.2 mi West 9.2 mph - N/A Rain Rain
6:20 AM 44.6 °F 39.7 °F 42.8 °F 93% 29.77 in 3.7 mi West 9.2 mph - N/A Rain Light Rain Showers
6:25 AM 46.4 °F 41.5 °F 42.8 °F 87% 29.77 in 6.2 mi West 10.4 mph - N/A Rain Light Rain Showers
6:34 AM 46.4 °F 41.1 °F 42.8 °F 87% 29.77 in 6.2 mi WSW 11.5 mph - N/A Rain Light Rain
6:47 AM 46.4 °F 41.9 °F 42.8 °F 87% 29.77 in 6.2 mi West 9.2 mph - N/A Rain Light Rain
6:55 AM 46.4 °F 41.9 °F 42.8 °F 87% 29.77 in 6.2 mi West 9.2 mph - N/A   Overcast
7:06 AM 46.4 °F 41.9 °F 42.8 °F 87% 29.74 in 6.2 mi West 9.2 mph - N/A Thunderstorm Thunderstorm
7:11 AM 48.2 °F - 42.8 °F 82% 29.74 in 6.2 mi West 9.2 mph - N/A Thunderstorm Thunderstorm
7:19 AM 46.4 °F 42.4 °F 42.8 °F 87% 29.74 in 6.2 mi WNW 8.1 mph - N/A Rain , Thunderstorm Light Thunderstorms and Rain
7:25 AM 46.4 °F 41.5 °F 42.8 °F 87% 29.77 in 6.2 mi WNW 10.4 mph 23.0 mph N/A Rain Light Rain
7:30 AM 46.4 °F 40.7 °F 41.0 °F 81% 29.77 in 6.2 mi WNW 12.7 mph - N/A Rain Rain
7:35 AM 46.4 °F 40.7 °F 41.0 °F 81% 29.77 in 6.2 mi WNW 12.7 mph - N/A Rain Light Rain
7:55 AM 46.4 °F 43.5 °F 42.8 °F 87% 29.77 in 6.2 mi WNW 5.8 mph - N/A   Mostly Cloudy
8:05 AM 46.4 °F 42.9 °F 42.8 °F 87% 29.77 in 6.2 mi West 6.9 mph - N/A   Mostly Cloudy
8:25 AM 44.6 °F 40.2 °F 42.8 °F 93% 29.77 in 6.2 mi WSW 8.1 mph - N/A   Mostly Cloudy
8:55 AM 48.2 °F - 42.8 °F 82% 29.77 in 6.2 mi WNW 9.2 mph - N/A Rain Light Rain
9:00 AM 48.2 °F - 42.8 °F 82% 29.77 in 6.2 mi WNW 9.2 mph - N/A Rain Light Rain Showers
9:05 AM 48.2 °F - 42.8 °F 82% 29.77 in 6.2 mi WNW 8.1 mph - N/A Rain Light Rain Showers
9:14 AM 48.2 °F - 44.6 °F 87% 29.77 in 6.2 mi WNW 5.8 mph - N/A   Mostly Cloudy
9:25 AM 48.2 °F - 44.6 °F 87% 29.77 in 6.2 mi West 4.6 mph - N/A   Mostly Cloudy
9:37 AM 48.2 °F - 44.6 °F 87% 29.77 in 6.2 mi West 5.8 mph - N/A   Partly Cloudy
9:55 AM 50.0 °F - 46.4 °F 87% 29.77 in 6.2 mi WNW 5.8 mph - N/A   Mostly Cloudy
10:15 AM 50.0 °F - 44.6 °F 82% 29.77 in 6.2 mi North 3.5 mph - N/A   Mostly Cloudy
10:25 AM 50.0 °F - 44.6 °F 82% 29.77 in 6.2 mi NNW 4.6 mph - N/A   Mostly Cloudy
10:55 AM 51.8 °F - 42.8 °F 71% 29.80 in 6.2 mi WNW 3.5 mph - N/A   Unknown
11:25 AM 51.8 °F - 42.8 °F 71% 29.80 in 6.2 mi WNW 6.9 mph - N/A   Mostly Cloudy
11:55 AM 53.6 °F - 42.8 °F 67% 29.80 in 6.2 mi NW 2.3 mph - N/A   Mostly Cloudy
12:25 PM 55.4 °F - 44.6 °F 67% 29.80 in 6.2 mi NW 5.8 mph - N/A   Mostly Cloudy
12:55 PM 53.6 °F - 44.6 °F 72% 29.80 in 6.2 mi NW 8.1 mph - N/A   Overcast
1:25 PM 53.6 °F - 42.8 °F 67% 29.80 in 6.2 mi North 6.9 mph - N/A   Mostly Cloudy
1:46 PM 53.6 °F - 44.6 °F 72% 29.80 in 6.2 mi NW 5.8 mph - N/A   Mostly Cloudy
1:55 PM 53.6 °F - 44.6 °F 72% 29.80 in 6.2 mi NW 6.9 mph - N/A   Overcast
2:12 PM 50.0 °F - 42.8 °F 76% 29.83 in 6.2 mi NW 12.7 mph 24.2 mph N/A Rain Light Rain
2:18 PM 50.0 °F - 42.8 °F 76% 29.83 in 6.2 mi NW 13.8 mph - N/A Rain Light Drizzle
2:25 PM 50.0 °F - 44.6 °F 82% 29.83 in 6.2 mi NW 12.7 mph - N/A Rain Light Rain
2:42 PM 51.8 °F - 44.6 °F 76% 29.83 in 6.2 mi WNW 10.4 mph - N/A   Mostly Cloudy
2:55 PM 51.8 °F - 44.6 °F 76% 29.80 in 6.2 mi WNW 10.4 mph - N/A   Partly Cloudy
3:25 PM 53.6 °F - 42.8 °F 67% 29.80 in 6.2 mi West 11.5 mph - N/A   Partly Cloudy
3:38 PM 53.6 °F - 42.8 °F 67% 29.80 in 6.2 mi WNW 9.2 mph - N/A   Scattered Clouds
3:55 PM 53.6 °F - 42.8 °F 67% 29.80 in 6.2 mi WNW 11.5 mph - N/A   Mostly Cloudy
4:25 PM 51.8 °F - 44.6 °F 76% 29.80 in 6.2 mi WNW 8.1 mph - N/A   Mostly Cloudy
4:43 PM 51.8 °F - 44.6 °F 76% 29.80 in 6.2 mi WNW 10.4 mph - N/A   Mostly Cloudy
4:51 PM 50.0 °F - 44.6 °F 82% 29.80 in 6.2 mi West 10.4 mph - N/A Rain Drizzle
4:55 PM 50.0 °F - 46.4 °F 87% 29.80 in 6.2 mi WNW 10.4 mph - N/A Rain Light Rain
4:59 PM 50.0 °F - 46.4 °F 87% 29.80 in 6.2 mi WNW 10.4 mph - N/A Rain Light Rain Showers
5:12 PM 51.8 °F - 48.2 °F 88% 29.80 in 6.2 mi West 8.1 mph - N/A   Mostly Cloudy
5:25 PM 50.0 °F - 46.4 °F 87% 29.80 in 6.2 mi WNW 8.1 mph - N/A   Overcast
5:55 PM 50.0 °F - 46.4 °F 87% 29.80 in 6.2 mi West 9.2 mph - N/A   Mostly Cloudy
6:25 PM 50.0 °F - 46.4 °F 87% 29.80 in 6.2 mi WSW 8.1 mph - N/A   Mostly Cloudy
6:26 PM 50.0 °F - 46.4 °F 87% 29.80 in 6.2 mi WSW 8.1 mph - N/A   Mostly Cloudy
6:37 PM 50.0 °F - 46.4 °F 87% 29.80 in 6.2 mi WSW 10.4 mph - N/A   Overcast
6:42 PM 50.0 °F - 46.4 °F 87% 29.80 in 6.2 mi WSW 11.5 mph - N/A   Mostly Cloudy
6:46 PM 50.0 °F - 46.4 °F 87% 29.77 in 6.2 mi WSW 12.7 mph - N/A   Mostly Cloudy
6:50 PM 48.2 °F - 46.4 °F 93% 29.77 in 6.2 mi WSW 11.5 mph - N/A   Overcast
6:55 PM 48.2 °F - 46.4 °F 93% 29.77 in 6.2 mi WSW 10.4 mph - N/A   Mostly Cloudy
7:25 PM 48.2 °F - 46.4 °F 93% 29.80 in 6.2 mi West 5.8 mph - N/A   Mostly Cloudy
7:55 PM 50.0 °F - 46.4 °F 87% 29.77 in 6.2 mi WNW 5.8 mph - N/A   Overcast
8:25 PM 50.0 °F - 46.4 °F 87% 29.80 in 6.2 mi WNW 6.9 mph - N/A   Overcast
8:35 PM 50.0 °F - 46.4 °F 87% 29.80 in 6.2 mi WNW 8.1 mph - N/A Rain Drizzle
8:48 PM 50.0 °F - 46.4 °F 87% 29.80 in 6.2 mi NW 6.9 mph - N/A Rain Light Rain
8:55 PM 50.0 °F - 46.4 °F 87% 29.80 in 6.2 mi NW 6.9 mph - N/A Rain Light Rain
9:02 PM 50.0 °F - 46.4 °F 87% 29.80 in 6.2 mi NW 5.8 mph - N/A Rain Light Rain Showers
9:25 PM 48.2 °F - 46.4 °F 93% 29.77 in 6.2 mi WNW 9.2 mph - N/A Rain Light Rain
9:28 PM 48.2 °F - 46.4 °F 93% 29.77 in 6.2 mi WNW 8.1 mph - N/A Rain Light Rain Showers
9:49 PM 48.2 °F - 46.4 °F 93% 29.77 in 6.2 mi WNW 6.9 mph - N/A Rain Light Rain
9:55 PM 48.2 °F - 46.4 °F 93% 29.77 in 6.2 mi WNW 6.9 mph - N/A Rain Light Drizzle
10:04 PM 48.2 °F - 46.4 °F 93% 29.77 in 6.2 mi WNW 8.1 mph - N/A   Mostly Cloudy
10:20 PM 48.2 °F - 46.4 °F 93% 29.77 in 6.2 mi WNW 5.8 mph - N/A Rain Light Rain
10:25 PM 48.2 °F - 44.6 °F 87% 29.77 in 6.2 mi WNW 6.9 mph - N/A Rain Light Rain
10:30 PM 48.2 °F - 44.6 °F 87% 29.77 in 6.2 mi WNW 6.9 mph - N/A   Light Drizzle
10:40 PM 48.2 °F - 46.4 °F 93% 29.77 in 6.2 mi WNW 5.8 mph - N/A Rain Light Rain
10:55 PM 48.2 °F - 46.4 °F 93% 29.80 in 6.2 mi WNW 4.6 mph - N/A   Mostly Cloudy
11:07 PM 48.2 °F - 46.4 °F 93% 29.77 in 6.2 mi WNW 4.6 mph - N/A Rain Drizzle
11:18 PM 48.2 °F - 46.4 °F 93% 29.77 in 6.2 mi WNW 3.5 mph - N/A Rain Light Rain
11:25 PM 48.2 °F - 46.4 °F 93% 29.77 in 6.2 mi WNW 3.5 mph - N/A Rain Light Rain
11:55 PM 48.2 °F - 46.4 °F 93% 29.80 in 6.2 mi WNW 1.2 mph - N/A   Light Drizzle